Location: *
(50.3440°N, 18.6237°E)
Time: 12:50:45
(UTC+00:00)

Cosmos 1821 Rocket - Pass Details

Date: 30 November 2020
Orbit: 946 x 1004 km, 82.9° (Epoch: 26 January)

Event Time Altitude Azimuth Distance (km) Brightness Sun altitude
Rises 17:03:05 0° 350° (N) 3,670 7.0 -21.1°
Reaches altitude 10° 17:05:35 10° 351° (N) 2,727 6.3 -21.5°
Maximum altitude 17:11:52 83° 80° (E) 995 3.9 -22.5°
Drops below altitude 10° 17:18:11 10° 169° (S) 2,748 6.3 -23.5°
Sets 17:20:43 0° 170° (S) 3,700 7.0 -23.9°
